Weather History for 78073 - September, 2012

Change the Weather History Date:

Tuesday, September 25, 2012

  Actual Average Record
Temperature  
Mean Temperature 80 °F -  
Max Temperature 88 °F 86 °F - ()
Min Temperature 72 °F 72 °F - ()
Cooling Degree Days 15    
Growing Degree Days 30 (Base 50)    
Moisture  
Dew Point 75 °F    
Average Humidity 85    
Maximum Humidity 100    
Minimum Humidity 69    
Precipitation  
Precipitation 0.94 in 0.23 in - ()
Sea Level Pressure  
Sea Level Pressure 30.01 in    
Wind  
Wind Speed 2 mph ()    
Max Wind Speed 9 mph    
Max Gust Speed -    
Visibility 6.1 miles    
Events Rain , Thunderstorm    
T = Trace of Precipitation, MM = Missing Value Source: Averaged Metar Reports

Daily Weather History Graph

Daily Weather History Graph

Search for Another Location

Airport or City:

Trip Planner

Search our weather history database for the weather conditions in past years. The results will help you decide how hot, cold, wet, or windy it might be!

Date:

Astronomy

Sep. 25, 2012 Rise Set
Actual Time 6:59 AM EDT 7:02 PM EDT
Civil Twilight 6:36 AM EDT 7:25 PM EDT
Nautical Twilight 6:10 AM EDT 7:51 PM EDT
Astronomical Twilight 5:43 AM EDT 8:18 PM EDT
Moon 4:04 PM EDT (9/25) 2:44 AM EDT (9/25)
Length of Visible Light 12h 48m
Length of Day
12h 02m
Waxing Gibbous, 80% of the Moon is Illuminated
Sep 25
Waxing Gibbous
Sep 29
Full
Oct 8
Last Quarter
Oct 15
New
Oct 21
First Quarter

Hourly Weather History & Observations

Time (EDT) Temp. Heat Index Dew Point Humidity Pressure Visibility Wind Dir Wind Speed Gust Speed Precip Events Conditions
12:00 AM 80.6 °F 85.4 °F 73.4 °F 79% 30.01 in 6.2 mi Calm Calm - N/A   Mostly Cloudy
1:00 AM 80.6 °F 84.6 °F 71.6 °F 74% 30.01 in 6.2 mi Variable 1.2 mph - N/A   Mostly Cloudy
2:00 AM 79 °F - 75 °F 83% 29.99 in 9 mi Calm Calm - -   Mostly Cloudy
2:00 AM 78.8 °F - 75.2 °F 89% 29.99 in 6.2 mi Calm Calm - N/A   Mostly Cloudy
4:00 AM 78.8 °F - 73.4 °F 83% 29.98 in 6.2 mi Calm Calm - N/A   Mostly Cloudy
5:00 AM 79 °F - 75 °F 84% 29.98 in 9 mi 1.2 mph - -   Partly Cloudy
5:00 AM 78.8 °F - 75.2 °F 89% 29.98 in 6.2 mi Variable 1.2 mph - N/A   Mostly Cloudy
5:38 AM 75.2 °F - 71.6 °F 89% 30.00 in 0.5 mi South 8.1 mph - N/A Rain Heavy Rain Showers
5:44 AM 75.2 °F - 71.6 °F 89% 30.00 in 0.5 mi SE 9.2 mph - N/A Rain , Thunderstorm Heavy Thunderstorms and Rain
6:00 AM 75.2 °F - 71.6 °F 89% 30.01 in 0.5 mi ESE 9.2 mph - N/A Rain , Thunderstorm Heavy Thunderstorms and Rain
6:19 AM 75.2 °F - 71.6 °F 89% 30.01 in 5.6 mi NE 6.9 mph - N/A Rain , Thunderstorm Light Thunderstorms and Rain
8:00 AM 76 °F - 74 °F 93% 30.03 in 8 mi North 1.2 mph - - Rain Light Rain Showers
8:00 AM 75.2 °F - 75.2 °F 100% 30.02 in 6.2 mi Variable 1.2 mph - N/A   Mostly Cloudy
9:00 AM 78.8 °F - 75.2 °F 89% 30.03 in 6.2 mi East 3.5 mph - N/A   Mostly Cloudy
10:00 AM 82.4 °F 89.5 °F 75.2 °F 79% 30.03 in 6.2 mi East 2.3 mph - N/A   Mostly Cloudy
11:00 AM 87 °F - 78 °F 69% 30.05 in 9 mi ESE 4.6 mph - -   Partly Cloudy
11:00 AM 87.8 °F 102.5 °F 78.8 °F 75% 30.04 in 6.2 mi ESE 4.6 mph - N/A   Mostly Cloudy
12:00 PM 102.2 °F 162.9 °F 93.2 °F 76% 30.03 in 6.2 mi ENE 4.6 mph - N/A   Mostly Cloudy
1:00 PM 86.0 °F 95.1 °F 75.2 °F 70% 30.03 in 6.2 mi NE 4.6 mph - N/A   Mostly Cloudy
2:00 PM 84 °F - 78 °F 76% 30.02 in 9 mi Calm Calm - - Rain Light Rain Showers
2:00 PM 84.2 °F 94.1 °F 77.0 °F 79% 30.02 in 6.2 mi Calm Calm - N/A   Mostly Cloudy
2:18 PM 82.4 °F 89.5 °F 75.2 °F 79% 30.00 in 6.2 mi ENE 2.3 mph - N/A Rain , Thunderstorm Light Thunderstorms and Rain
3:00 PM 77.0 °F - 73.4 °F 89% 30.00 in 3.7 mi Variable 2.3 mph - N/A Rain , Thunderstorm Light Thunderstorms and Rain
4:00 PM 77.0 °F - 71.6 °F 83% 30.00 in 6.2 mi ESE 3.5 mph - N/A Rain , Thunderstorm Light Thunderstorms and Rain
5:00 PM 79 °F - 76 °F 88% 30.00 in 8 mi ENE 2.3 mph - - Thunderstorm Light Thunderstorm
5:00 PM 78.8 °F - 77.0 °F 94% 30.00 in 6.2 mi ENE 2.3 mph - N/A   Mostly Cloudy
6:00 PM 80.6 °F 86.2 °F 75.2 °F 84% 30.00 in 6.2 mi Calm Calm - N/A   Mostly Cloudy
7:00 PM 80.6 °F 86.2 °F 75.2 °F 84% 30.00 in 6.2 mi ENE 3.5 mph - N/A   Mostly Cloudy
8:00 PM 80 °F - 78 °F 92% 30.01 in 8 mi Calm Calm - -   Partly Cloudy
8:00 PM 80.6 °F 88.1 °F 78.8 °F 94% 30.01 in 6.2 mi Calm Calm - N/A   Mostly Cloudy
9:00 PM 78.8 °F - 75.2 °F 89% 30.03 in 6.2 mi Calm Calm - N/A   Mostly Cloudy
10:00 PM 80.6 °F 86.2 °F 75.2 °F 84% 30.05 in 6.2 mi ENE 2.3 mph - N/A   Mostly Cloudy
11:00 PM 78.8 °F - 77.0 °F 94% 30.07 in 6.2 mi Calm Calm - N/A   Mostly Cloudy